Regional Weather Roundup
Issued by NWS San Diego, CA

Home | Current Version | Previous Version | Text Only | Print | Product List | Glossary On
Versions: 1 2 3 4 5 6 7 8 9 10 11 12 13 14 15 16 17 18 19 20 21 22 23 24 25 26 27 28 29 30 31 32 33 34 35 36 37 38 39 40 41 42 43 44 45 46 47 48 49 50
000
ASUS46 KSGX 011203
RWRSGX

SAN DIEGO HOURLY WEATHER ROUNDUP
NATIONAL WEATHER SERVICE SAN DIEGO CA
500 AM PDT MON SEP 01 2014

NOTE: "FAIR" INDICATES FEW OR NO CLOUDS BELOW 12,000 FEET WITH NO
SIGNIFICANT WEATHER AND/OR OBSTRUCTIONS TO VISIBILITY.

CAZ042-043-060-061-PZZ750-775-011300-

GREATER SAN DIEGO AREA

CITY           SKY/WX    TMP DP  RH WIND       PRES   REMARKS
LINDBERGH FLD  MOCLDY    68  62  81 S13       29.82S
POINT LOMA       N/A     65  62  91 SE8         N/A
NATIONAL CITY    N/A     68  64  86 CALM      29.82S
IMPERIAL BEACH CLOUDY    65  63  93 CALM      29.81F
BROWN FIELD    CLOUDY    65  63  93 CALM      29.82S FOG
MIRAMAR MCAS   MOCLDY    66  62  87 S6        29.82R
MONTGOMERY FLD CLOUDY    67  62  84 S8        29.82S

$$

NORTH SAN DIEGO COUNTY

CITY           SKY/WX    TMP DP  RH WIND       PRES   REMARKS
CAMP PENDLETON CLOUDY    68  63  84 CALM      29.81S HAZE
OCEANSIDE AP   PTCLDY    68  62  81 E5        29.80S
OCEANSIDE HBR    N/A     68  64  87 E2        29.83S
VISTA            N/A     67  64  87 CALM      29.79R
CARLSBAD       PTCLDY    66  62  87 SE3       29.81R
DEL MAR          N/A     66  64  94 CALM      29.83S
LA JOLLA SCRIP   N/A     67  64  91 SE5       29.79R
FALLBROOK        N/A     67  67 100 CALM      29.81S
ESCONDIDO        N/A     67  65  94 CALM      29.82R
SAN MARCOS       N/A     66  61  85 CALM      29.78S
POWAY            N/A     64  61  90 CALM      29.82R

$$

EAST SAN DIEGO COUNTY

CITY           SKY/WX    TMP DP  RH WIND       PRES   REMARKS
RAMONA         CLEAR     56  50  80 SE3       29.84S
SANTEE LAKES     N/A     65  63  92 CALM      29.82S
LA MESA          N/A     66  64  93 CALM      29.75S
JAMUL            N/A     62  60  94 CALM      29.79S
DESCANSO N       N/A     63  35  35 E9        29.68S
MT. LAGUNA OBS   N/A     63  29  27 W5        29.67S
CAMPO            N/A     54  40  59 NE7       29.89S

$$

ORANGE COUNTY AND THE LOS ANGELES BASIN

CITY           SKY/WX    TMP DP  RH WIND       PRES   REMARKS
JOHN WAYNE AP  MOCLDY    72  63  73 S6        29.80S
LAGUNA BEACH     N/A     67  63  87 NW2       29.76S
LAKE FOREST FR   N/A     64  58  83 CALM      29.70S
SANTA ANA        N/A     67  63  86 CALM      29.76R
HUNTINGTON BCH   N/A     69  65  87 SE3       29.82S
LOS ALAMITOS   FAIR      67  63  88 CALM      29.81R
FULLERTON      CLEAR     70  64  81 CALM      29.80R
LONG BEACH     CLOUDY    70  64  81 SE3       29.80S
L.A. AP        CLOUDY    71  64  78 E5        29.81R
L.A. DOWNTOWN  CLOUDY    71  64  78 CALM      29.80R

$$

THE INLAND EMPIRE

CITY           SKY/WX    TMP DP  RH WIND       PRES   REMARKS
CORONA         CLEAR     59  57  92 CALM      29.82S
CHINO          CLEAR     63  62  97 CALM      29.83S FOG
ONTARIO        CLEAR     67  64  90 CALM      29.82S FOG
RIVERSIDE AP   CLEAR     66  62  87 CALM      29.82S
RIV CYN CREST    N/A     67  67  98 CALM      29.79S
MORENO VALLEY    N/A     67  57  71 CALM      29.04R
HORSETHIEF CYN   N/A     64  48  55 SW3       29.80F
PERRIS           N/A     65  58  79 CALM      29.82R
MENIFEE          N/A     65  62  90 CALM      29.89S
HEMET EAST       N/A     66  42  41 CALM      29.78S
FRENCH VALLEY  FAIR      63  59  88 CALM      29.84S
TEMECULA         N/A     62  60  91 CALM      29.79S

$$

SAN BERNARDINO AND RIVERSIDE COUNTY MOUNTAINS

CITY           SKY/WX    TMP DP  RH WIND       PRES   REMARKS
BIG BEAR AP    CLEAR     43  28  56 CALM      30.16S
ANGELUS OAKS     N/A     61  33  35 CALM      29.66S
PINE COVE        N/A     66  23  19 CALM      29.66S

$$

SOUTHERN DESERT INCLUDING THE COACHELLA VALLEY

CITY           SKY/WX    TMP DP  RH WIND       PRES   REMARKS
PALM SPRINGS   CLEAR     81  53  37 S5        29.71S
THOUSAND PALMS   N/A     86  45  23 NW10      29.65R
PALM DESERT      N/A     76  58  52 CALM      26.83S
THERMAL        CLEAR     74  49  41 CALM      29.66R
BLYTHE         CLEAR     84  59  42 S10       29.70R
IMPERIAL AP    CLEAR     78  52  40 S7        29.67S
YUMA AZ        CLEAR     87  62  43 SE8       29.70R

$$

UPPER DESERT

CITY           SKY/WX    TMP DP  RH WIND       PRES   REMARKS
VICTORVILLE AP CLEAR     68  43  40 CALM      29.88S
HESPERIA         N/A     67  47  49 W1        29.82S
APPLE VALLEY     N/A     67  48  50 CALM      29.97R
PALMDALE       CLEAR     67  39  35 SW9       29.86S
LANCASTER      CLEAR     71  35  26 W8        29.85R
EDWARDS AFB    CLEAR     68  35  29 SW8       29.83R
DAGGETT        CLEAR     72  45  37 W9        29.81R
29 PALMS N     CLEAR     77  43  29 W12       29.87S
NEEDLES        CLEAR     86  45  23 W7        29.73R

$$

REGIONAL REPORTS

CITY           SKY/WX    TMP DP  RH WIND       PRES   REMARKS
SANTA BARBARA  CLEAR     63  59  87 CALM      29.80R
SANDBERG       CLEAR     70  31  23 N22G32    29.99S
MT. WILSON       N/A     64  27  24 N1          N/A
LAS VEGAS NV   CLEAR     82  31  15 SW7       29.77R
PHOENIX AZ     CLEAR     83  47  28 E7        29.79S
TIJUANA        FOG       64  63  94 CALM      29.84S VSB 1/2
ENSENADA NW      N/A     67  32  27 S2        29.79F

$$

OFFSHORE ISLANDS

CITY           SKY/WX    TMP DP  RH WIND       PRES   REMARKS
CATALINA ARPT  CLOUDY    63  62  97 SE12      29.83S FOG
SAN NICOLAS IS CLOUDY   N/A N/A N/A W9        29.80S

$$

MARINE AND OFFSHORE BUOY REPORTS

STATION/POSITION SKY/WX   TEMP    WIND        PRES    SWELL
                          AIR SEA DIR/SP/G            HT/PER/DIR
                          (F)     (DEG/KT/KT) (MB)    (FT/S/D)
TANNER BANKS               65 69  320/ 19/ 23 1009.3S   3/240/15
S CLEMENTE BASIN           67 71  270/  8/ 10 1008.8S   5/240/15
SAN NICOLAS IS.               63                N/A     2/220/14
SO. S. ROSA ISLA           64 66  330/ 19/ 25 1008.5F   2/15
W. S. BARBARA CH           61 62  330/ 17/ 23 1008.4F   3/300/ 8
S. MONICA BASIN            71 71  100/  8/ 10 1008.4F   3/220/15
S PEDRO CHANNEL               71                N/A     2/200/14
DANA POINT                    73                N/A     2/210/15
CMP PENDLETON NS              74                N/A     2/220/14
OCEANSIDE OFFSHR              74                N/A     2/220/15
TORREY PINES OTR              74                N/A     2/220/14
LA JOLLA 1                 68 71  160/  7/ 10 1009.5S
MISSION BAY BUOY              73                N/A     2/230/15
SAN DIEGO BAY                 74              1009.9F
POINT LOMA SOUTH              74                N/A     2/200/15

$$



USA.gov is the U.S. government's official web portal to all federal, state and local government web resources and services.